Time,TemperatureF,DewpointF,PressureIn,WindDirection,WindDirectionDegrees,WindSpeedMPH,WindSpeedGustMPH,Humidity,HourlyPrecipIn,Conditions,Clouds,dailyrainin,SoftwareType,DateUTC
2014-02-06 07:22:00,14.0,11.0,29.87,ESE,118,0.0,1.0,87,0.00,,,0.00,,2014-02-06 14:22:00,
2014-02-06 07:42:00,14.0,11.0,29.85,ESE,118,0.0,2.0,87,0.00,,,0.00,,2014-02-06 14:42:00,
2014-02-06 07:52:00,14.0,11.0,29.85,ESE,118,0.0,1.0,88,0.00,,,0.00,,2014-02-06 14:52:00,
2014-02-06 08:11:00,15.0,12.0,29.88,ESE,117,1.0,1.0,88,0.00,,,0.00,,2014-02-06 15:11:00,
2014-02-06 08:21:00,15.0,12.0,29.88,ESE,118,0.0,2.0,88,0.00,,,0.00,,2014-02-06 15:21:00,
2014-02-06 08:44:00,15.0,12.0,29.86,ESE,118,0.0,1.0,88,0.00,,,0.00,,2014-02-06 15:44:00,
2014-02-06 08:54:00,15.0,12.0,29.86,ESE,118,0.0,0.0,88,0.00,,,0.00,,2014-02-06 15:54:00,
2014-02-06 09:13:00,16.0,13.0,29.86,ESE,118,0.0,0.0,88,0.00,,,0.00,,2014-02-06 16:13:00,
2014-02-06 09:23:00,17.0,14.0,29.86,ESE,118,0.0,0.0,88,0.00,,,0.00,,2014-02-06 16:23:00,
2014-02-06 09:42:00,17.0,14.0,29.88,ESE,118,0.0,0.0,88,0.00,,,0.00,,2014-02-06 16:42:00,
2014-02-06 09:53:00,19.0,16.0,29.88,ESE,118,0.0,0.0,88,0.00,,,0.00,,2014-02-06 16:53:00,
2014-02-06 10:22:00,21.0,17.0,29.88,SSE,156,0.0,1.0,85,0.00,,,0.00,,2014-02-06 17:22:00,
2014-02-06 10:52:00,22.0,16.0,29.87,SSE,156,0.0,1.0,79,0.00,,,0.00,,2014-02-06 17:52:00,
2014-02-06 11:22:00,24.0,17.0,29.87,NNW,347,1.0,3.0,75,0.00,,,0.00,,2014-02-06 18:22:00,
2014-02-06 11:42:00,24.0,17.0,29.87,NNW,347,0.0,2.0,75,0.00,,,0.00,,2014-02-06 18:42:00,
2014-02-06 11:52:00,25.0,18.0,29.87,WNW,300,1.0,2.0,74,0.00,,,0.00,,2014-02-06 18:52:00,
2014-02-06 12:11:00,26.0,18.0,29.87,WNW,300,0.0,2.0,72,0.00,,,0.00,,2014-02-06 19:11:00,
2014-02-06 12:22:00,28.0,19.0,29.86,SE,133,3.0,7.0,68,0.00,,,0.00,,2014-02-06 19:22:00,
2014-02-06 12:42:00,29.0,19.0,29.86,ESE,119,1.0,5.0,67,0.00,,,0.00,,2014-02-06 19:42:00,
2014-02-06 12:52:00,29.0,18.0,29.85,SSE,148,2.0,11.0,64,0.00,,,0.00,,2014-02-06 19:52:00,
2014-02-06 13:11:00,30.0,19.0,29.85,SSE,148,1.0,9.0,64,0.00,,,0.00,,2014-02-06 20:11:00,
2014-02-06 13:21:00,31.0,21.0,29.83,NE,51,1.0,4.0,65,0.00,,,0.00,,2014-02-06 20:21:00,
2014-02-06 13:42:00,31.0,20.0,29.81,ESE,108,1.0,10.0,62,0.01,,,0.01,,2014-02-06 20:42:00,
2014-02-06 13:53:00,31.0,20.0,29.81,ESE,120,1.0,7.0,64,0.01,,,0.01,,2014-02-06 20:53:00,
2014-02-06 14:12:00,31.0,21.0,29.80,South,186,0.0,4.0,65,0.01,,,0.01,,2014-02-06 21:12:00,
2014-02-06 14:21:00,31.0,21.0,29.80,SSW,207,2.0,5.0,65,0.02,,,0.02,,2014-02-06 21:21:00,
2014-02-06 14:43:00,31.0,20.0,29.80,SE,145,1.0,6.0,64,0.01,,,0.02,,2014-02-06 21:43:00,
2014-02-06 14:53:00,31.0,21.0,29.80,NE,56,2.0,3.0,67,0.02,,,0.03,,2014-02-06 21:53:00,
2014-02-06 15:12:00,31.0,21.0,29.82,NNW,338,1.0,6.0,65,0.02,,,0.03,,2014-02-06 22:12:00,
2014-02-06 15:23:00,32.0,21.0,29.80,SE,131,2.0,6.0,63,0.02,,,0.04,,2014-02-06 22:23:00,
2014-02-06 15:42:00,31.0,20.0,29.80,SSE,161,3.0,6.0,64,0.02,,,0.04,,2014-02-06 22:42:00,
2014-02-06 15:53:00,29.0,19.0,29.79,East,91,2.0,5.0,67,0.01,,,0.04,,2014-02-06 22:53:00,
2014-02-06 16:12:00,29.0,20.0,29.81,ENE,69,1.0,4.0,68,0.01,,,0.04,,2014-02-06 23:12:00,
2014-02-06 16:22:00,30.0,21.0,29.79,East,83,0.0,3.0,68,0.00,,,0.04,,2014-02-06 23:22:00,
2014-02-06 16:53:00,29.0,20.0,29.79,SE,141,0.0,4.0,69,0.00,,,0.04,,2014-02-06 23:53:00,
2014-02-06 17:11:00,29.0,20.0,29.79,East,89,0.0,2.0,70,0.00,,,0.04,,2014-02-07 00:11:00,
2014-02-06 17:22:00,28.0,20.0,29.81,ENE,73,0.0,3.0,71,0.00,,,0.04,,2014-02-07 00:22:00,
2014-02-06 17:42:00,28.0,20.0,29.79,East,86,0.0,3.0,71,0.00,,,0.04,,2014-02-07 00:42:00,
2014-02-06 17:52:00,27.0,19.0,29.79,ENE,65,1.0,3.0,72,0.00,,,0.04,,2014-02-07 00:52:00,
2014-02-06 18:12:00,27.0,19.0,29.80,ENE,58,0.0,2.0,72,0.00,,,0.04,,2014-02-07 01:12:00,
2014-02-06 18:21:00,26.0,19.0,29.80,ENE,58,0.0,0.0,73,0.00,,,0.04,,2014-02-07 01:21:00,
2014-02-06 18:42:00,26.0,19.0,29.80,ENE,58,0.0,0.0,74,0.00,,,0.04,,2014-02-07 01:42:00,
2014-02-06 18:52:00,25.0,18.0,29.80,ENE,58,0.0,0.0,74,0.00,,,0.04,,2014-02-07 01:52:00,
2014-02-06 19:22:00,23.0,19.0,29.80,East,79,1.0,2.0,83,0.00,,,0.04,,2014-02-07 02:22:00,
2014-02-06 19:42:00,22.0,18.0,29.80,East,79,0.0,2.0,84,0.00,,,0.04,,2014-02-07 02:42:00,
2014-02-06 19:52:00,22.0,18.0,29.80,East,82,2.0,4.0,84,0.00,,,0.04,,2014-02-07 02:52:00,
2014-02-06 20:11:00,22.0,18.0,29.81,ENE,78,0.0,2.0,84,0.00,,,0.04,,2014-02-07 03:11:00,
2014-02-06 20:22:00,21.0,17.0,29.80,ENE,78,0.0,1.0,84,0.00,,,0.04,,2014-02-07 03:22:00,
2014-02-06 20:43:00,21.0,17.0,29.80,ENE,78,0.0,2.0,85,0.00,,,0.04,,2014-02-07 03:43:00,
2014-02-06 20:53:00,20.0,16.0,29.79,ENE,78,0.0,1.0,86,0.00,,,0.04,,2014-02-07 03:53:00,
2014-02-06 21:13:00,20.0,16.0,29.79,ENE,78,0.0,1.0,86,0.00,,,0.04,,2014-02-07 04:13:00,
2014-02-06 21:23:00,20.0,17.0,29.79,ENE,78,0.0,1.0,87,0.00,,,0.04,,2014-02-07 04:23:00,
2014-02-06 21:43:00,20.0,17.0,29.78,ENE,78,0.0,2.0,88,0.00,,,0.04,,2014-02-07 04:43:00,
2014-02-06 21:52:00,20.0,17.0,29.78,ENE,78,0.0,1.0,89,0.00,,,0.04,,2014-02-07 04:52:00,
2014-02-06 22:22:00,20.0,17.0,29.78,ENE,78,0.0,0.0,89,0.00,,,0.04,,2014-02-07 05:22:00,
2014-02-06 22:52:00,20.0,17.0,29.78,ENE,78,0.0,0.0,89,0.00,,,0.04,,2014-02-07 05:52:00,
2014-02-06 23:11:00,20.0,17.0,29.78,ENE,78,0.0,0.0,89,0.00,,,0.04,,2014-02-07 06:11:00,
2014-02-06 23:22:00,20.0,17.0,29.78,ENE,78,0.0,1.0,89,0.00,,,0.04,,2014-02-07 06:22:00,
2014-02-06 23:42:00,20.0,17.0,29.77,ENE,78,0.0,0.0,89,0.00,,,0.04,,2014-02-07 06:42:00,
2014-02-06 23:52:00,20.0,18.0,29.77,ENE,78,0.0,1.0,90,0.00,,,0.04,,2014-02-07 06:52:00,